Location: *
(43.3321°S, 179.7403°W)
Time: 05:43:53
(UTC+00:00)

Daily predictions for brighter satellites

Satellite Brightness Start Highest point End
(mag) Time Altitude Azimuth Time Altitude Azimuth Time Altitude Azimuth
Cosmos 1184 Rocket 4.3 07:14:20 10° SSE 07:16:58 21° ESE 07:19:34 10° ENE
CZ-2C R/B 2.6 07:12:05 10° NNE 07:17:13 63° ESE 07:22:25 10° S
NOAA 11 4.3 07:12:04 10° SSE 07:17:35 59° E 07:23:01 10° N
Cosmos 2322 Rocket 2.9 07:17:43 10° SSW 07:23:02 38° ESE 07:28:19 10° NE
STARLINK-1214 3.8 07:20:40 10° WNW 07:23:25 43° SSW 07:26:13 10° SE
STARLINK-1235 3.9 07:20:53 10° WNW 07:23:43 44° SSW 07:26:37 10° SE
STARLINK-1204 3.9 07:21:29 10° WNW 07:24:31 48° SSW 07:27:37 10° SE
STARLINK-1203 4.0 07:21:53 10° WNW 07:25:05 49° SSW 07:28:22 10° SE
Cosmos 2219 Rocket 4.4 07:25:00 10° SSE 07:25:41 10° SE 07:26:22 10° SE
MOS 1 Rocket 3.7 07:21:33 10° NNE 07:26:39 62° ESE 07:32:03 10° S
STARLINK-1112 4.5 07:22:55 10° SW 07:26:57 41° SSE 07:30:52 10° E
Cosmos 2333 Rocket 4.3 07:25:49 10° SSE 07:27:50 12° SE 07:29:52 10° ESE
H-2A R/B 3.3 07:26:16 10° SE 07:30:01 20° E 07:33:48 10° NE
COSMOS 2487 4.3 07:29:31 10° NE 07:31:14 13° E 07:32:57 10° ESE
Cosmos 2082 Rocket 3.9 07:26:55 10° NW 07:32:16 39° WSW 07:37:40 10° SSE
STARLINK-1066 2.7 07:29:51 10° SW 07:32:51 83° SSE 07:35:24 13° ENE
STARLINK-1081 2.7 07:30:04 10° SW 07:33:04 83° SE 07:35:36 13° ENE
STARLINK-1070 2.7 07:30:18 10° SW 07:33:17 84° SSE 07:35:47 14° ENE
Cosmos 1939 Rocket 2.8 07:29:19 10° SSE 07:33:24 81° ENE 07:37:30 10° N
STARLINK-1069 2.7 07:30:33 10° SW 07:33:33 84° SE 07:36:04 14° NE
STARLINK-1085 2.7 07:30:45 10° SW 07:33:46 84° SSE 07:36:16 14° NE
STARLINK-1086 2.7 07:30:58 10° SW 07:33:59 85° SE 07:36:29 14° NE
STARLINK-1095 2.7 07:31:11 10° SW 07:34:11 85° SE 07:36:41 14° NE
STARLINK-1077 2.7 07:31:26 10° SW 07:34:27 86° SSE 07:36:56 14° NE
GP-B 3.8 07:30:24 10° SSE 07:34:34 35° E 07:38:42 10° NNE
STARLINK-1075 2.7 07:31:38 10° SW 07:34:39 86° SE 07:37:07 14° NE
STARLINK-1093 2.7 07:31:52 10° SW 07:34:52 87° SE 07:37:20 14° NE
STARLINK-1074 2.7 07:32:05 10° SW 07:35:06 87° SE 07:37:33 14° NE
STARLINK-1087 2.7 07:32:20 10° SW 07:35:21 87° SE 07:37:47 14° NE
STARLINK-1088 2.7 07:32:34 10° SW 07:35:35 88° SSE 07:38:01 14° NE
STARLINK-1115 2.7 07:32:45 10° SW 07:35:46 88° SSE 07:38:11 14° NE
STARLINK-1076 2.7 07:33:00 10° SW 07:36:01 89° SE 07:38:26 14° NE
CZ-2D R/B 3.3 07:32:08 10° SSE 07:36:05 85° ENE 07:40:00 10° NNW
STARLINK-1092 2.7 07:33:12 10° SW 07:36:12 89° SSE 07:38:37 15° NE
STARLINK-1080 2.7 07:33:26 10° SW 07:36:27 89° SSE 07:38:52 15° NE
STARLINK-1090 2.7 07:33:40 10° SW 07:36:41 90° SW 07:39:05 15° NE
STARLINK-1089 2.7 07:33:53 10° SW 07:36:53 90° N 07:39:16 15° NE
STARLINK-1107 2.7 07:34:07 10° SW 07:37:07 89° NW 07:39:29 15° NE
STARLINK-1109 2.7 07:34:21 10° SW 07:37:22 89° NW 07:39:44 15° NE
STARLINK-1072 2.7 07:34:45 10° SW 07:37:46 88° NW 07:40:07 15° NE
STARLINK-1096 2.7 07:35:01 10° SW 07:38:02 87° NW 07:40:23 15° NE
STARLINK-1091 2.7 07:35:11 10° SW 07:38:14 87° NNW 07:40:36 15° NE
STARLINK-1079 2.7 07:35:16 10° SW 07:38:16 87° NW 07:40:36 15° NE
STARLINK-1116 2.7 07:35:27 10° SW 07:38:29 87° NNW 07:40:48 15° NE
STARLINK-1094 2.7 07:35:55 10° SW 07:38:56 86° NNW 07:41:14 15° NE
STARLINK-1117 2.7 07:36:08 10° SW 07:39:09 85° NNW 07:41:26 16° NE
STARLINK-1078 2.7 07:36:21 10° SW 07:39:22 85° NW 07:41:40 16° NE
STARLINK-1108 2.7 07:36:35 10° SW 07:39:35 85° NW 07:41:52 16° NE
STARLINK-1071 2.7 07:36:51 10° SW 07:39:52 84° NW 07:42:08 16° NE
Cosmos 1743 3.0 07:36:04 10° S 07:39:56 47° ESE 07:43:45 10° NNE
STARLINK-1110 2.7 07:37:01 10° SW 07:40:02 84° NW 07:42:18 16° NE
STARLINK-1122 2.7 07:37:27 10° SW 07:40:27 83° NW 07:42:42 16° NE
STARLINK-1126 2.7 07:37:43 10° SW 07:40:43 82° NW 07:42:57 16° NE
STARLINK-1082 2.7 07:37:56 10° SW 07:40:57 82° NW 07:43:11 16° NE
STARLINK-1100 2.7 07:38:10 10° SW 07:41:11 82° NW 07:43:24 16° NE
STARLINK-1083 2.7 07:38:22 10° SW 07:41:23 81° NW 07:43:36 16° NE
STARLINK-1125 2.7 07:38:38 10° SW 07:41:38 81° NW 07:43:51 16° NE
Cosmos 2360 Rocket 3.2 07:40:28 10° S 07:45:33 31° SE 07:49:26 15° ENE
CZ-4 R/B 2.5 07:41:41 10° S 07:45:48 51° WSW 07:49:55 10° NNW
Cosmos 405 3.1 07:43:27 10° N 07:46:57 53° E 07:50:28 10° SSE
SL-8 R/B 4.5 07:42:45 10° WSW 07:47:27 47° S 07:51:48 12° E
Cosmos 773 Rocket 4.2 07:42:39 10° SSW 07:48:02 78° WNW 07:53:20 10° NNE
SJ-6B 4.1 07:48:09 10° SE 07:51:06 20° E 07:52:04 19° ENE
Cosmos 1980 Rocket 3.9 07:47:13 10° SW 07:52:22 34° WNW 07:57:28 10° NNW
STARLINK-1124 3.5 07:51:15 10° WSW 07:54:19 48° NW 07:56:21 18° NNE
Cosmos 405 Rocket 3.0 07:50:24 10° SSW 07:54:22 73° W 07:58:21 10° N
SL-27 R/B 3.8 07:52:43 10° NW 07:56:01 42° WSW 07:59:26 10° S
Okean 1 3.2 07:52:09 10° N 07:56:09 73° E 08:00:12 10° SSE
Sich 1 Rocket 3.8 07:53:08 10° S 07:57:32 50° ESE 08:01:07 15° NNE
YAOGAN 1 3.6 07:55:39 10° S 07:59:55 50° WSW 08:04:08 10° NNW
STARLINK-1098 3.8 07:57:43 10° SW 08:01:55 65° SSE 08:04:21 24° ENE
ARGOS Delta rocket 4.2 08:02:16 10° SSE 08:06:54 40° E 08:10:23 15° NNE
STARLINK-1123 3.7 08:02:41 10° SW 08:06:55 70° SSE 08:09:08 27° ENE
Okean 1-7 3.3 08:02:50 10° NNW 08:07:16 75° W 08:11:46 10° S
STARLINK-1097 3.6 08:07:40 10° SW 08:11:54 76° SE 08:13:55 30° ENE
STARLINK-1118 4.2 08:10:32 10° WSW 08:12:53 27° NW 08:13:47 22° N
SPOT 3 Rocket 4.4 08:10:33 10° SE 08:15:03 28° E 08:16:13 26° ENE
ISS -2.1 08:12:18 10° SW 08:15:17 27° SSE 08:16:49 19° ESE
ARGOS 3.5 08:11:06 10° SSE 08:16:19 44° E 08:21:01 12° NNE
STARLINK-1099 3.6 08:12:37 10° SW 08:16:52 81° SE 08:18:41 33° ENE
Cosmos 2237 4.5 08:12:55 10° SSW 08:18:37 54° ESE 08:21:37 27° NE
Cosmos 1782 Rocket 3.9 08:15:05 10° SSW 08:19:30 67° W 08:23:54 10° N
STARLINK-1104 3.6 08:17:36 10° SW 08:21:51 88° SE 08:23:28 37° NE
SL-08 RB Rocket 4.2 08:19:08 10° SSE 08:23:33 38° E 08:24:51 32° NE
ATLAS CENTAUR R/B 3.1 08:21:40 10° SSW 08:25:29 25° SE 08:26:56 22° ESE
SJ-11-01 4.3 08:21:47 10° SSE 08:26:38 84° WSW 08:31:22 10° NNW
SJ 16-02 1.8 08:25:59 36° NE 08:26:47 39° ENE 08:30:57 10° SSE
STARLINK-1144 3.6 08:22:37 10° SW 08:26:52 86° NNW 08:28:17 41° NE
CZ-2C R/B 3.3 08:21:55 10° SSE 08:27:25 59° E 08:33:04 10° N
COSMOS 2428 4.0 08:23:19 10° S 08:27:59 25° SE 08:29:51 21° ESE
USA 186 2.5 08:26:21 10° S 08:27:39 28° S 08:27:39 28° S
Nadezhda 4 Rocket 4.1 08:22:32 10° N 08:28:53 83° W 08:35:16 10° S
Ariane Rocket 3.0 08:23:55 10° SSE 08:29:06 89° WSW 08:34:14 10° NNW
SL-16 R/B 2.8 08:24:11 10° SSW 08:29:47 57° WNW 08:34:28 15° N
STARLINK-1103 3.6 08:27:35 10° WSW 08:31:49 79° NW 08:33:03 45° NE
Cosmos 923 Rocket 3.9 08:27:48 10° SSW 08:33:09 83° ESE 08:35:50 30° NNE
Cosmos 2026 Rocket 4.1 08:31:05 24° NNE 08:34:34 50° E 08:40:32 10° SSE
Thor Agena Rocket 4.2 08:33:25 32° E 08:34:36 36° ESE 08:39:16 10° S
STARLINK-1128 3.7 08:31:52 10° WSW 08:36:07 73° NW 08:37:12 47° NNE
STARLINK-1101 3.7 08:32:36 10° WSW 08:36:49 73° NW 08:37:51 48° NNE
BREEZE-M DEB (TANK) 2.4 08:35:53 10° WSW 08:37:56 38° SSW 08:37:56 38° SSW
STARLINK-1113 3.8 08:36:48 10° WSW 08:41:02 67° NW 08:41:57 50° NNE
Mayak 0.0 08:41:28 27° ESE 08:41:28 27° ESE 08:44:45 10° S
Cosmos 1300 Rocket 3.5 08:36:59 10° S 08:41:25 68° E 08:42:27 49° NE
STARLINK-1102 3.7 08:37:34 10° WSW 08:41:47 67° NW 08:42:37 51° NNE
STARLINK-1119 3.9 08:41:50 10° WSW 08:46:02 61° NW 08:46:45 51° N
Cosmos 1544 3.2 08:42:21 10° SSW 08:46:07 74° W 08:46:56 52° NNW
STARLINK-1111 3.8 08:42:34 10° WSW 08:46:44 61° NW 08:47:24 52° N
FREGAT/IRIS 4.1 08:44:43 10° S 08:47:21 34° WSW 08:48:31 23° WNW
Cosmos 1607 4.5 08:42:10 10° NW 08:48:32 63° SW 08:54:54 10° SSE
Okean 3 3.6 08:46:18 22° NNW 08:48:57 76° W 08:53:16 10° S
EO 1 Del DPAF 4.2 08:49:41 34° SE 08:49:41 34° SE 08:52:36 10° S
DNEPR-1 R/B 3.7 08:45:03 10° NW 08:49:09 68° SW 08:53:23 10° SSE
Cosmos 1975 3.9 08:45:20 10° SSW 08:49:18 44° W 08:51:48 20° NNW
STARLINK-1114 3.9 08:46:48 10° WSW 08:50:58 56° NW 08:51:30 51° N
CZ-4C R/B 1.9 08:45:44 10° SW 08:51:21 80° WNW 08:52:46 48° NNE
STARLINK-1073 3.9 08:47:33 10° WSW 08:51:42 56° NW 08:52:10 52° NNW
Cosmos 1898 Rocket 3.4 08:49:42 22° N 08:53:05 68° ENE 08:58:27 10° SSE
Cosmos 2151 Rocket 3.5 08:49:46 10° S 08:54:18 81° E 08:55:00 62° NNE
Cosmos 44 3.3 08:49:25 10° NNW 08:54:32 66° ENE 08:59:52 10° SE
Cosmos 1378 Rocket 4.5 08:56:18 35° SE 08:56:18 35° SE 08:59:26 10° SSE
Resurs 1-3 3.9 08:51:11 10° SSE 08:55:04 50° ESE 08:55:04 50° ESE
STARLINK-1130 (DARKSAT) 4.0 08:51:48 10° WSW 08:55:55 51° NW 08:56:17 49° NNW
STARLINK-1121 4.0 08:52:32 10° WSW 08:56:37 51° NW 08:56:56 50° NNW
Meteor 2-4 Rocket 3.9 08:54:30 10° NNW 09:00:15 74° W 09:05:55 10° S
STARLINK-1084 4.2 08:56:49 10° WSW 09:00:53 46° NW 09:01:05 46° NW
STARLINK-1106 4.2 08:57:32 10° WSW 09:01:35 46° NW 09:01:43 46° NW
Okean 2 Rocket 3.7 08:58:02 10° SSW 09:02:34 56° W 09:04:17 34° NNW
COSMOS 2487 3.9 09:02:45 10° NW 09:05:56 36° WSW 09:09:15 10° S
Cosmos 1680 Rocket 3.8 09:01:06 10° SSW 09:06:27 67° WNW 09:08:05 44° N
STARLINK-1112 4.4 09:02:34 10° WSW 09:06:31 42° NW 09:06:31 42° NW
Cosmos 2322 Rocket 3.6 09:01:56 10° SW 09:06:59 33° WNW 09:10:33 17° NNW
H-2A R/B 2.8 09:04:46 10° S 09:09:42 52° WSW 09:14:43 10° NW
Cosmos 1428 Rocket 4.4 09:06:45 32° N 09:09:55 85° E 09:16:20 10° S
Cosmos 1655 Rocket 4.3 09:09:54 44° E 09:09:55 44° E 09:15:51 10° SSE
Cosmos 2322 3.6 09:04:21 10° SSW 09:10:09 77° ESE 09:11:08 61° NE
Cosmos 2219 Rocket 2.5 09:05:34 10° SSW 09:11:06 50° ESE 09:11:37 48° ESE
Cosmos 2333 4.2 09:05:37 10° SSW 09:11:26 72° ESE 09:12:21 61° ENE
Cosmos 858 Rocket 4.3 09:12:32 69° NNE 09:13:03 76° ENE 09:18:20 10° SSE
Cosmos 2333 Rocket 2.4 09:07:45 10° SSW 09:13:29 56° ESE 09:14:05 53° E
Timation 2 Rocket 4.3 09:14:31 46° E 09:14:31 46° E 09:19:40 10° SE
Cosmos 2237 Rocket 3.6 09:12:29 10° S 09:17:05 24° SE 09:17:30 24° ESE
Cosmos 724 4.3 09:13:26 10° NNW 09:19:30 89° ENE 09:25:44 10° SSE
Resurs 01 Rocket 2.3 09:18:14 10° SSE 09:21:33 47° SSE 09:21:33 47° SSE
Meteor 2-13 Rocket 4.3 09:23:58 63° NNE 09:24:58 78° E 09:31:11 10° S
Cosmos 990 Rocket 4.3 09:21:37 19° NW 09:25:19 64° WSW 09:30:37 10° SSE
Cosmos 1674 Rocket 3.9 09:28:23 62° WSW 09:28:23 62° WSW 09:32:33 10° S
Cosmos 2360 Rocket 3.1 09:24:17 10° SW 09:29:40 43° WNW 09:31:13 35° NW
SL-8 R/B 3.9 09:25:27 10° WSW 09:29:45 70° WSW 09:29:45 70° WSW
MetOp-A 4.3 09:28:31 10° S 09:33:56 70° WSW 09:35:20 49° NW
Cosmos 1937 Rocket 3.8 09:40:24 57° WNW 09:41:08 64° WSW 09:46:20 10° SSE
Cosmos 1066 Rocket 4.2 09:44:48 81° SSE 09:44:48 81° SSE 09:50:15 10° S
Meteor 1-15 Rocket 4.3 09:40:59 10° SSW 09:46:51 78° W 09:47:02 77° WNW
Cosmos 2297 Rocket 4.5 09:51:24 12° SE 09:51:24 12° SE 09:51:54 10° SE
ISS -0.8 09:48:56 10° WSW 09:49:45 16° WSW 09:49:45 16° WSW
Okean 1 Rocket 4.3 09:51:44 10° SSW 09:55:06 41° SW 09:55:06 41° SW
ATLAS CENTAUR R/B 3.0 10:00:09 10° SW 10:03:07 36° WSW 10:03:07 36° WSW
USA 215 3.4 10:04:22 61° ESE 10:04:58 64° SSE 10:11:31 10° SW
SJ 16-02 3.7 10:02:51 13° WNW 10:05:32 21° WSW 10:08:58 10° S
Cosmos 1553 Rocket 4.5 09:59:47 10° SSW 10:06:06 54° W 10:06:57 51° WNW
Cosmos 2227 Rocket 4.4 10:10:24 15° SE 10:10:24 15° SE 10:11:26 10° SE
SL-16 R/B 3.9 10:02:54 10° S 10:06:54 23° SE 10:06:54 23° SE
Cosmos 1980 4.4 10:04:10 10° SSW 10:08:37 48° SSE 10:08:37 48° SSE
COSMOS 2428 3.3 10:07:00 10° SSW 10:11:51 54° WSW 10:11:51 54° WSW
Mayak 1.0 10:18:02 22° WSW 10:18:02 22° WSW 10:20:17 10° SW
Terra 4.3 10:13:10 10° SSE 10:13:54 14° SE 10:13:54 14° SE
Cosmos 2266 Rocket 4.2 10:25:42 67° SW 10:25:42 67° SW 10:31:28 10° S
Cosmos 2315 Rocket 4.5 10:34:45 10° S 10:39:48 58° SSW 10:39:48 58° SSW
Cosmos 2219 Rocket 4.0 10:50:09 10° SW 10:53:20 23° W 10:53:20 23° W
Cosmos 2333 Rocket 4.1 10:52:52 10° SW 10:56:05 22° W 10:56:05 22° W
Resurs 01 Rocket 4.4 10:56:33 10° SSW 10:58:39 13° WSW 10:59:07 13° WSW
Cosmos 2237 Rocket 3.6 10:55:55 10° SSW 10:59:19 35° SW 10:59:19 35° SW
CZ-2D R/B 4.3 11:31:27 20° SE 11:31:27 20° SE 11:34:01 10° SSE
Cosmos 2297 Rocket 3.8 11:33:11 31° S 11:33:11 31° S 11:36:24 10° SSE
Resurs 1-4 Rocket 4.3 11:40:39 20° SSE 11:40:39 20° SSE 11:42:56 10° S
Cosmos 2227 Rocket 3.9 11:52:12 29° SSW 11:52:12 29° SSW 11:55:34 10° S
SL-16 R/B 4.0 11:46:19 10° SSW 11:48:45 26° SW 11:48:45 26° SW
Terra 4.3 11:51:08 10° S 11:52:46 18° SSW 11:52:46 18° SSW
